OH6LSL Weather Reports


Display with metric or nautical units.
time (UTC)temp
F
wind
direction
speed
MPH
gust
MPH
rain 1hr
in
rain 24hr
in
rain mn
in
humidity
%
barometer
mb
20260507075436 42 179 0.0 5.0 0.00 0.00 0.00 62 1013.7
20260507074433 43 164 1.0 6.0 0.00 0.00 0.00 61 1013.5
20260507073440 43 165 0.0 5.0 0.00 0.00 0.00 58 1013.5
20260507072439 43 257 0.0 6.0 0.00 0.00 0.00 59 1013.3
20260507071440 42 256 1.0 7.0 0.00 0.00 0.00 60 1013.0
20260507070513 42 220 2.0 7.0 0.00 0.00 0.00 59 1013.0
20260507065436 42 234 2.0 5.0 0.00 0.00 0.00 60 1012.9
20260507064438 42 243 1.0 5.0 0.00 0.00 0.00 61 1013.0
20260507063451 42 239 2.0 6.0 0.00 0.00 0.00 62 1013.0
20260507062432 42 206 1.0 7.0 0.00 0.00 0.00 59 1012.8
20260507061453 42 277 3.0 7.0 0.00 0.00 0.00 59 1012.7
20260507060504 43 209 0.0 8.0 0.00 0.00 0.00 58 1012.7
20260507055444 43 223 1.0 5.0 0.00 0.00 0.00 57 1012.5
20260507054504 42 222 2.0 7.0 0.00 0.00 0.00 56 1012.4
20260507053451 42 224 1.0 5.0 0.00 0.00 0.00 56 1012.4
20260507052511 41 131 1.0 3.0 0.00 0.00 0.00 56 1012.3
20260507051451 41 138 0.0 2.0 0.00 0.00 0.00 56 1012.2
20260507050441 41 130 0.0 2.0 0.00 0.00 0.00 54 1012.2
20260507045442 40 182 0.0 4.0 0.00 0.00 0.00 53 1012.3
20260507044507 40 206 0.0 5.0 0.00 0.00 0.00 51 1012.2
20260507043454 39 113 0.0 2.0 0.00 0.00 0.00 51 1012.2
20260507042433 38 145 0.0 0.0 0.00 0.00 0.00 51 1012.1
20260507041435 37 145 0.0 1.0 0.00 0.00 0.00 50 1012.0
20260507040447 36 147 0.0 0.0 0.00 0.00 0.00 50 1012.0
20260507035448 35 147 0.0 1.0 0.00 0.00 0.00 49 1012.1
20260507034447 34 147 0.0 0.0 0.00 0.00 0.00 51 1011.9
20260507033437 33 147 0.0 0.0 0.00 0.00 0.00 51 1011.9
20260507032438 33 143 0.0 2.0 0.00 0.00 0.00 51 1011.8
20260507031434 32 152 0.0 1.0 0.00 0.00 0.00 51 1011.7
20260507030445 32 154 1.0 6.0 0.00 0.00 0.00 51 1011.7
20260507025444 33 138 0.0 2.0 0.00 0.00 0.00 51 1011.7
20260507024445 33 137 0.0 1.0 0.00 0.00 0.00 51 1011.6
20260507023435 33 140 0.0 0.0 0.00 0.00 0.00 51 1011.6
20260507022434 33 140 0.0 0.0 0.00 0.00 0.00 52 1011.6
20260507021433 33 140 0.0 0.0 0.00 0.00 0.00 54 1011.7
20260507020442 33 140 0.0 0.0 0.00 0.00 0.00 55 1011.7
20260507015448 33 140 0.0 0.0 0.00 0.00 0.00 56 1011.6
20260507014444 33 140 0.0 0.0 0.00 0.00 0.00 57 1011.6
20260507013433 33 140 0.0 0.0 0.00 0.00 0.00 58 1011.6
20260507012451 34 140 0.0 0.0 0.00 0.00 0.00 59 1011.5
20260507011451 34 140 0.0 0.0 0.00 0.00 0.00 59 1011.3
20260507010442 35 140 0.0 0.0 0.00 0.00 0.00 60 1011.3
20260507005501 35 140 0.0 0.0 0.00 0.00 0.00 61 1011.3
20260507004441 36 140 0.0 0.0 0.00 0.00 0.00 62 1011.2
20260507003450 36 140 0.0 4.0 0.00 0.00 0.00 62 1011.2
20260507002450 37 136 0.0 5.0 0.00 0.00 0.00 62 1011.2
20260507001510 37 148 1.0 3.0 0.00 0.00 0.00 62 1011.2
20260507000442 37 148 0.0 0.0 0.00 0.00 0.00 62 1011.2
20260506235439 37 148 0.0 0.0 0.00 0.00 0.00 62 1011.0
20260506234441 37 148 0.0 1.0 0.00 0.00 0.00 62 1011.0
20260506233433 37 141 0.0 0.0 0.00 0.00 0.00 62 1011.0
20260506232454 37 141 0.0 0.0 0.00 0.00 0.00 63 1010.9
20260506231434 37 141 0.0 0.0 0.00 0.00 0.00 64 1010.9
20260506230504 37 141 0.0 0.0 0.00 0.00 0.00 64 1010.9
20260506225504 37 141 0.0 0.0 0.00 0.00 0.00 64 1010.7
20260506224444 37 141 0.0 0.0 0.00 0.00 0.00 64 1010.6
20260506223453 38 141 0.0 0.0 0.00 0.00 0.00 64 1010.6
20260506222433 38 141 0.0 0.0 0.00 0.00 0.00 63 1010.5
20260506221431 38 140 0.0 0.0 0.00 0.00 0.00 63 1010.5
20260506220440 38 140 0.0 2.0 0.00 0.00 0.00 62 1010.5
20260506215500 39 208 0.0 2.0 0.00 0.00 0.00 62 1010.3
20260506214443 39 130 0.0 0.0 0.00 0.00 0.00 61 1010.2
20260506213432 39 130 0.0 3.0 0.00 0.00 0.00 61 1010.2
20260506212432 39 136 0.0 3.0 0.00 0.00 0.00 59 1010.1
20260506211435 40 172 0.0 6.0 0.00 0.00 0.00 58 1010.1
20260506210443 40 210 0.0 3.0 0.00 0.00 0.00 58 1010.1
20260506205443 40 215 0.0 3.0 0.00 0.00 0.00 57 1010.0
20260506204445 40 188 0.0 6.0 0.00 0.00 0.00 59 1010.0
20260506203434 41 219 1.0 5.0 0.00 0.00 0.00 60 1010.0
20260506202435 40 184 1.0 7.0 0.00 0.00 0.00 60 1010.0
20260506201435 40 154 2.0 8.0 0.00 0.00 0.00 61 1009.9
20260506200448 39 172 1.0 5.0 0.00 0.00 0.00 64 1009.9
20260506195450 39 148 0.0 0.0 0.00 0.00 0.00 65 1009.8
20260506194447 39 150 0.0 2.0 0.00 0.00 0.00 65 1009.9
20260506193444 39 147 0.0 3.0 0.00 0.00 0.00 65 1009.9
20260506192507 39 152 1.0 2.0 0.00 0.00 0.00 65 1009.8
20260506191446 39 155 0.0 2.0 0.00 0.00 0.00 65 1009.6
20260506190434 40 169 0.0 2.0 0.00 0.00 0.00 64 1009.6
20260506185458 40 133 0.0 3.0 0.00 0.00 0.00 64 1009.6
20260506184436 40 154 0.0 1.0 0.00 0.00 0.00 62 1009.6
20260506183449 41 151 0.0 0.0 0.00 0.00 0.00 60 1009.6
20260506182511 41 151 0.0 3.0 0.00 0.00 0.00 59 1009.4
20260506181450 42 136 0.0 4.0 0.00 0.00 0.00 57 1009.3
20260506180501 42 212 0.0 4.0 0.00 0.00 0.00 56 1009.3
20260506175444 42 167 0.0 5.0 0.00 0.00 0.00 55 1009.2
20260506174446 43 203 0.0 3.0 0.00 0.00 0.00 52 1009.2
20260506173435 43 191 1.0 7.0 0.00 0.00 0.00 50 1009.2
20260506172436 44 171 2.0 6.0 0.00 0.00 0.00 49 1009.0
20260506171500 44 219 0.0 6.0 0.00 0.00 0.00 48 1008.9
20260506170449 44 236 1.0 8.0 0.00 0.00 0.00 48 1008.9
20260506165433 44 155 0.0 7.0 0.00 0.00 0.00 48 1008.8
20260506164437 44 222 1.0 6.0 0.00 0.00 0.00 49 1008.8
20260506163444 44 202 1.0 7.0 0.00 0.00 0.00 49 1008.8
20260506162446 44 253 1.0 5.0 0.00 0.00 0.00 50 1008.8
20260506161446 44 233 0.0 12.0 0.00 0.00 0.00 48 1008.8
20260506160438 45 223 3.0 8.0 0.00 0.00 0.00 47 1008.8
20260506155455 45 261 5.0 11.0 0.00 0.00 0.00 45 1008.6
20260506154456 45 233 2.0 12.0 0.00 0.00 0.00 46 1008.5
20260506153445 46 236 3.0 8.0 0.00 0.00 0.00 46 1008.5
20260506152445 46 244 2.0 6.0 0.00 0.00 0.00 47 1008.5
20260506151447 46 212 4.0 8.0 0.00 0.00 0.00 46 1008.5
20260506150436 46 213 4.0 11.0 0.00 0.00 0.00 44 1008.5
20260506145436 46 271 2.0 8.0 0.00 0.00 0.00 47 1008.4
20260506144443 46 215 2.0 7.0 0.00 0.00 0.00 45 1008.3
20260506143434 46 274 3.0 7.0 0.00 0.00 0.00 47 1008.3
20260506142454 46 192 1.0 8.0 0.00 0.00 0.00 46 1008.4
20260506141441 47 213 3.0 6.0 0.00 0.00 0.00 45 1008.3
20260506140454 48 202 2.0 7.0 0.00 0.00 0.00 43 1008.3
20260506135433 48 184 3.0 11.0 0.00 0.00 0.00 43 1008.2
20260506134435 48 86 4.0 7.0 0.00 0.00 0.00 41 1008.2
20260506133443 47 186 0.0 7.0 0.00 0.00 0.00 44 1008.2
20260506132506 47 152 3.0 6.0 0.00 0.00 0.00 43 1008.1
20260506131446 47 236 3.0 6.0 0.00 0.00 0.00 42 1008.0
20260506130440 47 172 1.0 7.0 0.00 0.00 0.00 43 1008.0
20260506125449 46 219 1.0 7.0 0.00 0.00 0.00 44 1008.0
20260506124433 46 134 3.0 10.0 0.00 0.00 0.00 45 1007.9
20260506123443 46 38 0.0 8.0 0.00 0.00 0.00 46 1007.9
20260506122445 46 144 2.0 7.0 0.00 0.00 0.00 46 1007.9
20260506121446 46 203 3.0 6.0 0.00 0.00 0.00 45 1007.8
20260506120436 45 246 0.0 7.0 0.00 0.00 0.00 49 1007.8
20260506115437 45 205 1.0 12.0 0.00 0.00 0.00 50 1007.6
20260506114458 45 274 1.0 10.0 0.00 0.00 0.00 49 1007.5
20260506113448 45 179 3.0 8.0 0.00 0.00 0.00 48 1007.5
20260506112448 45 219 0.0 7.0 0.00 0.00 0.00 49 1007.4
20260506111510 45 230 1.0 5.0 0.00 0.00 0.00 50 1007.3
20260506110439 44 178 1.0 10.0 0.00 0.00 0.00 50 1007.3
20260506105440 44 216 1.0 7.0 0.00 0.00 0.00 49 1007.1
20260506104444 45 219 0.0 6.0 0.00 0.00 0.00 49 1006.9
20260506103447 45 244 1.0 6.0 0.00 0.00 0.00 47 1006.9
20260506102449 45 270 1.0 10.0 0.00 0.00 0.00 48 1006.8
20260506101447 44 233 2.0 6.0 0.00 0.00 0.00 48 1006.6
20260506100437 44 329 0.0 4.0 0.00 0.00 0.00 49 1006.6
20260506095456 43 210 0.0 10.0 0.00 0.00 0.00 50 1006.4
20260506094437 43 209 0.0 8.0 0.00 0.00 0.00 53 1006.2
20260506093448 42 230 2.0 7.0 0.00 0.00 0.00 53 1006.2
20260506092510 42 184 1.0 7.0 0.00 0.00 0.00 54 1006.0
20260506091431 42 175 1.0 6.0 0.00 0.00 0.00 54 1005.9
20260506090503 42 144 0.0 11.0 0.00 0.00 0.00 55 1005.9
20260506085442 42 219 2.0 6.0 0.00 0.00 0.00 53 1005.8
20260506084443 43 260 0.0 5.0 0.00 0.00 0.00 52 1005.6
20260506083434 43 240 2.0 6.0 0.00 0.00 0.00 51 1005.6
20260506082433 45 206 0.0 7.0 0.00 0.00 0.00 47 1005.4
20260506081435 45 200 1.0 10.0 0.00 0.00 0.00 49 1005.2
20260506080446 45 257 0.0 6.0 0.00 0.00 0.00 45 1005.2